Time,TemperatureF,DewpointF,PressureIn,WindDirection,WindDirectionDegrees,WindSpeedMPH,WindSpeedGustMPH,Humidity,HourlyPrecipIn,Conditions,Clouds,dailyrainin,SoftwareType,DateUTC
2013-08-23 00:01:00,69.3,66.8,29.48,SE,135,0.0,0.0,92,0.00,CLR,SCT,0.00,WeatherDisplay:10.37,2013-08-23 04:01:00,
2013-08-23 00:02:00,69.3,66.8,29.48,SE,135,0.0,0.0,92,0.00,CLR,SCT,0.00,WeatherDisplay:10.37,2013-08-23 04:02:00,
2013-08-23 00:07:00,69.3,66.8,29.48,SE,135,0.0,0.0,92,0.00,CLR,SCT,0.00,WeatherDisplay:10.37,2013-08-23 04:07:00,
2013-08-23 00:12:00,69.1,67.0,29.48,SE,135,0.7,0.0,93,0.00,CLR,SCT,0.00,WeatherDisplay:10.37,2013-08-23 04:12:00,
2013-08-23 00:17:00,68.9,66.8,29.48,South,180,0.0,0.0,93,0.00,CLR,SCT,0.00,WeatherDisplay:10.37,2013-08-23 04:17:00,
2013-08-23 00:22:00,68.9,66.8,29.48,North,0,0.0,0.0,93,0.00,CLR,SCT,0.00,WeatherDisplay:10.37,2013-08-23 04:22:00,
2013-08-23 00:27:00,69.1,67.3,29.48,North,0,0.0,0.0,94,0.00,CLR,SCT,0.00,WeatherDisplay:10.37,2013-08-23 04:27:00,
2013-08-23 00:32:00,69.3,67.5,29.48,NW,315,0.0,0.0,94,0.00,CLR,SCT,0.00,WeatherDisplay:10.37,2013-08-23 04:32:00,
2013-08-23 00:37:00,69.4,67.6,29.47,SW,225,0.0,0.0,94,0.00,CLR,SCT,0.00,WeatherDisplay:10.37,2013-08-23 04:37:00,
2013-08-23 00:42:00,69.3,67.5,29.48,SW,225,0.0,0.0,94,0.00,CLR,SCT,0.00,WeatherDisplay:10.37,2013-08-23 04:42:00,
2013-08-23 00:47:00,68.9,66.8,29.47,NW,315,1.2,0.0,93,0.00,CLR,SCT,0.00,WeatherDisplay:10.37,2013-08-23 04:47:00,
2013-08-23 00:52:00,68.9,66.8,29.47,NW,315,0.0,0.0,93,0.00,CLR,SCT,0.00,WeatherDisplay:10.37,2013-08-23 04:52:00,
2013-08-23 00:57:00,69.1,67.0,29.47,South,180,0.0,0.0,93,0.00,CLR,SCT,0.00,WeatherDisplay:10.37,2013-08-23 04:57:00,
2013-08-23 01:02:00,68.9,66.8,29.47,South,180,0.0,0.0,93,0.00,CLR,SCT,0.00,WeatherDisplay:10.37,2013-08-23 05:02:00,
2013-08-23 01:07:00,68.7,66.6,29.47,South,180,0.0,0.0,93,0.00,CLR,SCT,0.00,WeatherDisplay:10.37,2013-08-23 05:07:00,
2013-08-23 01:12:00,68.5,66.4,29.47,SE,135,1.2,0.0,93,0.00,CLR,SCT,0.00,WeatherDisplay:10.37,2013-08-23 05:12:00,
2013-08-23 01:17:00,68.5,66.4,29.47,SE,135,0.0,0.0,93,0.00,CLR,SCT,0.00,WeatherDisplay:10.37,2013-08-23 05:17:00,
2013-08-23 01:22:00,68.4,66.6,29.47,SE,135,0.0,0.0,94,0.00,CLR,SCT,0.00,WeatherDisplay:10.37,2013-08-23 05:22:00,
2013-08-23 01:27:00,68.2,66.4,29.46,South,180,1.2,0.0,94,0.00,CLR,SCT,0.00,WeatherDisplay:10.37,2013-08-23 05:27:00,
2013-08-23 01:32:00,68.2,66.4,29.47,SW,225,1.2,0.0,94,0.00,CLR,SCT,0.00,WeatherDisplay:10.37,2013-08-23 05:32:00,
2013-08-23 01:37:00,68.2,66.4,29.47,South,180,0.0,0.0,94,0.00,CLR,SCT,0.00,WeatherDisplay:10.37,2013-08-23 05:37:00,
2013-08-23 01:42:00,68.2,66.4,29.47,South,180,0.0,0.0,94,0.00,CLR,SCT,0.00,WeatherDisplay:10.37,2013-08-23 05:42:00,
2013-08-23 01:47:00,68.0,66.2,29.46,South,180,0.0,0.0,94,0.00,CLR,SCT,0.00,WeatherDisplay:10.37,2013-08-23 05:47:00,
2013-08-23 01:52:00,68.0,66.2,29.46,South,180,1.2,0.0,94,0.00,CLR,SCT,0.00,WeatherDisplay:10.37,2013-08-23 05:52:00,
2013-08-23 01:57:00,68.0,66.2,29.46,South,180,0.0,0.0,94,0.00,CLR,SCT,0.00,WeatherDisplay:10.37,2013-08-23 05:57:00,
2013-08-23 02:02:00,67.8,66.3,29.46,South,180,0.0,0.0,95,0.00,CLR,SCT,0.00,WeatherDisplay:10.37,2013-08-23 06:02:00,
2013-08-23 02:07:00,67.6,66.2,29.45,South,180,0.0,0.0,95,0.00,CLR,SCT,0.00,WeatherDisplay:10.37,2013-08-23 06:07:00,
2013-08-23 02:12:00,67.6,66.2,29.46,West,270,0.0,0.0,95,0.00,CLR,SCT,0.00,WeatherDisplay:10.37,2013-08-23 06:12:00,
2013-08-23 02:17:00,67.5,66.0,29.45,East,90,0.0,0.0,95,0.00,CLR,SCT,0.00,WeatherDisplay:10.37,2013-08-23 06:17:00,
2013-08-23 02:22:00,67.5,66.0,29.44,East,90,0.0,0.0,95,0.00,CLR,SCT,0.00,WeatherDisplay:10.37,2013-08-23 06:22:00,
2013-08-23 02:27:00,67.5,66.0,29.44,East,90,0.0,0.0,95,0.00,CLR,SCT,0.00,WeatherDisplay:10.37,2013-08-23 06:27:00,
2013-08-23 02:32:00,67.5,66.3,29.44,East,90,0.0,0.0,96,0.00,CLR,SCT,0.00,WeatherDisplay:10.37,2013-08-23 06:32:00,
2013-08-23 02:37:00,67.5,66.3,29.44,South,180,0.0,0.0,96,0.00,CLR,SCT,0.00,WeatherDisplay:10.37,2013-08-23 06:37:00,
2013-08-23 02:42:00,67.5,66.3,29.44,South,180,1.2,0.0,96,0.00,CLR,SCT,0.00,WeatherDisplay:10.37,2013-08-23 06:42:00,
2013-08-23 02:47:00,67.3,66.1,29.43,South,180,0.0,0.0,96,0.00,CLR,SCT,0.00,WeatherDisplay:10.37,2013-08-23 06:47:00,
2013-08-23 02:52:00,67.3,66.1,29.43,South,180,0.0,0.0,96,0.00,CLR,SCT,0.00,WeatherDisplay:10.37,2013-08-23 06:52:00,
2013-08-23 02:57:00,67.1,65.9,29.43,South,180,0.0,0.0,96,0.00,CLR,SCT,0.00,WeatherDisplay:10.37,2013-08-23 06:57:00,
2013-08-23 03:02:00,66.9,65.7,29.43,South,180,0.0,0.0,96,0.00,CLR,SCT,0.00,WeatherDisplay:10.37,2013-08-23 07:02:00,
2013-08-23 03:07:00,66.9,65.7,29.43,NW,315,0.0,0.0,96,0.00,CLR,SCT,0.00,WeatherDisplay:10.37,2013-08-23 07:07:00,
2013-08-23 03:12:00,66.9,65.7,29.43,SE,135,0.0,0.0,96,0.00,CLR,SCT,0.00,WeatherDisplay:10.37,2013-08-23 07:12:00,
2013-08-23 03:17:00,66.9,65.7,29.43,South,180,0.0,0.0,96,0.00,CLR,SCT,0.00,WeatherDisplay:10.37,2013-08-23 07:17:00,
2013-08-23 03:22:00,66.9,65.7,29.43,South,180,0.0,0.0,96,0.00,CLR,SCT,0.00,WeatherDisplay:10.37,2013-08-23 07:22:00,
2013-08-23 03:27:00,66.7,65.6,29.43,South,180,0.0,0.0,96,0.00,CLR,SCT,0.00,WeatherDisplay:10.37,2013-08-23 07:27:00,
2013-08-23 03:32:00,66.7,65.6,29.43,South,180,0.0,0.0,96,0.00,CLR,SCT,0.00,WeatherDisplay:10.37,2013-08-23 07:32:00,
2013-08-23 03:37:00,66.6,65.4,29.42,South,180,0.0,0.0,96,0.00,CLR,SCT,0.00,WeatherDisplay:10.37,2013-08-23 07:37:00,
2013-08-23 03:42:00,66.4,65.2,29.42,South,180,0.0,0.0,96,0.00,CLR,SCT,0.00,WeatherDisplay:10.37,2013-08-23 07:42:00,
2013-08-23 03:47:00,66.4,65.2,29.43,South,180,0.0,0.0,96,0.00,CLR,SCT,0.00,WeatherDisplay:10.37,2013-08-23 07:47:00,
2013-08-23 03:52:00,66.2,65.0,29.42,South,180,0.0,0.0,96,0.00,CLR,SCT,0.00,WeatherDisplay:10.37,2013-08-23 07:52:00,
2013-08-23 03:57:00,66.0,65.1,29.42,South,180,0.0,0.0,97,0.00,CLR,SCT,0.00,WeatherDisplay:10.37,2013-08-23 07:57:00,
2013-08-23 04:02:00,66.2,65.0,29.42,South,180,0.0,0.0,96,0.00,CLR,SCT,0.00,WeatherDisplay:10.37,2013-08-23 08:02:00,
2013-08-23 04:07:00,66.2,65.0,29.42,South,180,0.0,0.0,96,0.00,CLR,SCT,0.00,WeatherDisplay:10.37,2013-08-23 08:07:00,
2013-08-23 04:12:00,66.0,65.1,29.42,South,180,0.0,0.0,97,0.00,CLR,SCT,0.00,WeatherDisplay:10.37,2013-08-23 08:12:00,
2013-08-23 04:17:00,66.0,65.1,29.43,South,180,0.0,0.0,97,0.00,CLR,SCT,0.00,WeatherDisplay:10.37,2013-08-23 08:17:00,
2013-08-23 04:22:00,66.0,65.1,29.42,South,180,0.0,0.0,97,0.00,CLR,SCT,0.00,WeatherDisplay:10.37,2013-08-23 08:22:00,
2013-08-23 04:27:00,65.8,65.0,29.42,South,180,0.0,0.0,97,0.00,CLR,SCT,0.00,WeatherDisplay:10.37,2013-08-23 08:27:00,
2013-08-23 04:32:00,65.8,65.0,29.42,South,180,0.0,0.0,97,0.00,CLR,SCT,0.00,WeatherDisplay:10.37,2013-08-23 08:32:00,
2013-08-23 04:37:00,65.7,64.8,29.42,South,180,0.0,0.0,97,0.00,CLR,SCT,0.00,WeatherDisplay:10.37,2013-08-23 08:37:00,
2013-08-23 04:42:00,65.7,64.8,29.42,South,180,0.0,0.0,97,0.00,CLR,SCT,0.00,WeatherDisplay:10.37,2013-08-23 08:42:00,
2013-08-23 04:47:00,65.5,64.6,29.42,South,180,0.0,0.0,97,0.00,CLR,SCT,0.00,WeatherDisplay:10.37,2013-08-23 08:47:00,
2013-08-23 04:52:00,65.5,64.6,29.42,NW,315,0.0,0.0,97,0.00,CLR,SCT,0.00,WeatherDisplay:10.37,2013-08-23 08:52:00,
2013-08-23 04:58:00,65.7,64.8,29.42,NW,315,0.0,0.0,97,0.00,CLR,SCT,0.00,WeatherDisplay:10.37,2013-08-23 08:58:00,
2013-08-23 05:03:00,65.7,64.8,29.42,NW,315,0.0,0.0,97,0.00,CLR,SCT,0.00,WeatherDisplay:10.37,2013-08-23 09:03:00,
2013-08-23 05:08:00,65.7,64.8,29.42,NW,315,0.0,0.0,97,0.00,CLR,SCT,0.00,WeatherDisplay:10.37,2013-08-23 09:08:00,
2013-08-23 05:13:00,65.5,64.6,29.43,South,180,0.0,0.0,97,0.00,CLR,SCT,0.00,WeatherDisplay:10.37,2013-08-23 09:13:00,
2013-08-23 05:18:00,65.5,64.6,29.43,SE,135,0.0,0.0,97,0.00,CLR,SCT,0.00,WeatherDisplay:10.37,2013-08-23 09:18:00,
2013-08-23 05:23:00,65.5,64.6,29.43,South,180,0.0,0.0,97,0.00,CLR,SCT,0.00,WeatherDisplay:10.37,2013-08-23 09:23:00,
2013-08-23 05:28:00,65.3,64.4,29.42,South,180,0.0,0.0,97,0.00,CLR,SCT,0.00,WeatherDisplay:10.37,2013-08-23 09:28:00,
2013-08-23 05:33:00,65.3,64.4,29.43,SW,225,0.0,0.0,97,0.00,CLR,SCT,0.00,WeatherDisplay:10.37,2013-08-23 09:33:00,
2013-08-23 05:38:00,65.3,64.4,29.42,NW,315,0.0,0.0,97,0.00,CLR,SCT,0.00,WeatherDisplay:10.37,2013-08-23 09:38:00,
2013-08-23 05:43:00,65.3,64.4,29.43,South,180,0.0,0.0,97,0.00,CLR,SCT,0.00,WeatherDisplay:10.37,2013-08-23 09:43:00,
2013-08-23 05:48:00,65.3,64.4,29.43,South,180,0.0,0.0,97,0.00,CLR,SCT,0.00,WeatherDisplay:10.37,2013-08-23 09:48:00,
2013-08-23 05:53:00,65.3,64.4,29.43,South,180,1.2,0.0,97,0.00,CLR,SCT,0.00,WeatherDisplay:10.37,2013-08-23 09:53:00,
2013-08-23 05:58:00,65.3,64.4,29.43,South,180,1.2,0.0,97,0.00,CLR,SCT,0.00,WeatherDisplay:10.37,2013-08-23 09:58:00,
2013-08-23 06:03:00,65.3,64.4,29.44,South,180,1.2,0.0,97,0.00,CLR,SCT,0.00,WeatherDisplay:10.37,2013-08-23 10:03:00,
2013-08-23 06:08:00,65.3,64.4,29.44,SE,135,1.2,0.0,97,0.00,CLR,SCT,0.00,WeatherDisplay:10.37,2013-08-23 10:08:00,
2013-08-23 06:13:00,65.1,64.2,29.44,South,180,0.0,0.0,97,0.00,CLR,SCT,0.00,WeatherDisplay:10.37,2013-08-23 10:13:00,
2013-08-23 06:18:00,64.9,64.1,29.44,North,0,1.2,0.0,97,0.00,CLR,SCT,0.00,WeatherDisplay:10.37,2013-08-23 10:18:00,
2013-08-23 06:23:00,64.9,64.1,29.44,North,0,1.2,0.0,97,0.00,CLR,SCT,0.00,WeatherDisplay:10.37,2013-08-23 10:23:00,
2013-08-23 06:28:00,64.9,64.4,29.44,South,180,0.0,0.0,98,0.00,CLR,SCT,0.00,WeatherDisplay:10.37,2013-08-23 10:28:00,
2013-08-23 06:33:00,64.9,64.4,29.44,South,180,0.0,0.0,98,0.00,CLR,SCT,0.00,WeatherDisplay:10.37,2013-08-23 10:33:00,
2013-08-23 06:38:00,64.9,64.1,29.44,SE,135,0.0,0.0,97,0.00,CLR,SCT,0.00,WeatherDisplay:10.37,2013-08-23 10:38:00,
2013-08-23 06:43:00,64.8,63.9,29.44,NW,315,1.2,0.0,97,0.00,CLR,SCT,0.00,WeatherDisplay:10.37,2013-08-23 10:43:00,
2013-08-23 06:48:00,64.8,64.2,29.44,NW,315,1.2,0.0,98,0.00,CLR,SCT,0.00,WeatherDisplay:10.37,2013-08-23 10:48:00,
2013-08-23 06:53:00,64.9,64.4,29.44,SW,225,1.2,0.0,98,0.00,CLR,SCT,0.00,WeatherDisplay:10.37,2013-08-23 10:53:00,
2013-08-23 06:58:00,64.9,64.4,29.44,SW,225,1.2,0.0,98,0.00,CLR,SCT,0.00,WeatherDisplay:10.37,2013-08-23 10:58:00,
2013-08-23 07:03:00,64.9,64.4,29.44,West,270,1.2,0.0,98,0.00,CLR,SCT,0.00,WeatherDisplay:10.37,2013-08-23 11:03:00,
2013-08-23 07:08:00,64.9,64.4,29.45,West,270,1.2,0.0,98,0.00,CLR,SCT,0.00,WeatherDisplay:10.37,2013-08-23 11:08:00,
2013-08-23 07:13:00,64.9,64.4,29.45,South,180,1.2,0.0,98,0.00,CLR,SCT,0.00,WeatherDisplay:10.37,2013-08-23 11:13:00,
2013-08-23 07:18:00,65.1,64.5,29.44,South,180,1.2,0.0,98,0.00,CLR,SCT,0.00,WeatherDisplay:10.37,2013-08-23 11:18:00,
2013-08-23 07:23:00,65.1,64.5,29.44,West,270,1.2,0.0,98,0.00,CLR,SCT,0.00,WeatherDisplay:10.37,2013-08-23 11:23:00,
2013-08-23 07:28:00,65.1,64.5,29.45,NW,315,1.2,0.0,98,0.00,CLR,SCT,0.00,WeatherDisplay:10.37,2013-08-23 11:28:00,
2013-08-23 07:33:00,65.3,64.7,29.45,North,0,1.2,0.0,98,0.00,CLR,SCT,0.00,WeatherDisplay:10.37,2013-08-23 11:33:00,
2013-08-23 07:38:00,65.5,64.9,29.45,North,0,1.2,0.0,98,0.00,CLR,SCT,0.00,WeatherDisplay:10.37,2013-08-23 11:38:00,
2013-08-23 07:43:00,65.5,64.9,29.45,South,180,1.2,0.0,98,0.00,CLR,SCT,0.00,WeatherDisplay:10.37,2013-08-23 11:43:00,
2013-08-23 07:48:00,65.7,65.1,29.45,SW,225,1.2,0.0,98,0.00,CLR,SCT,0.00,WeatherDisplay:10.37,2013-08-23 11:48:00,
2013-08-23 07:53:00,65.8,65.3,29.45,SW,225,1.2,0.0,98,0.00,CLR,SCT,0.00,WeatherDisplay:10.37,2013-08-23 11:53:00,
2013-08-23 07:58:00,66.2,65.3,29.45,South,180,1.2,0.0,97,0.00,CLR,SCT,0.00,WeatherDisplay:10.37,2013-08-23 11:58:00,
2013-08-23 08:03:00,66.2,65.3,29.45,SE,135,1.2,0.0,97,0.00,CLR,SCT,0.00,WeatherDisplay:10.37,2013-08-23 12:03:00,
2013-08-23 08:08:00,66.6,65.7,29.46,South,180,1.2,0.0,97,0.00,CLR,SCT,0.00,WeatherDisplay:10.37,2013-08-23 12:08:00,
2013-08-23 08:13:00,66.7,65.9,29.45,SE,135,1.2,0.0,97,0.00,CLR,SCT,0.00,WeatherDisplay:10.37,2013-08-23 12:13:00,
2013-08-23 08:18:00,66.9,66.0,29.46,South,180,1.2,0.0,97,0.00,CLR,SCT,0.00,WeatherDisplay:10.37,2013-08-23 12:18:00,
2013-08-23 08:23:00,67.1,66.2,29.46,SE,135,1.6,0.0,97,0.00,CLR,SCT,0.00,WeatherDisplay:10.37,2013-08-23 12:23:00,
2013-08-23 08:28:00,67.3,66.4,29.46,SW,225,1.2,0.0,97,0.00,CLR,SCT,0.00,WeatherDisplay:10.37,2013-08-23 12:28:00,
2013-08-23 08:33:00,67.6,66.8,29.47,West,270,1.2,0.0,97,0.00,CLR,SCT,0.00,WeatherDisplay:10.37,2013-08-23 12:33:00,
2013-08-23 08:38:00,68.0,66.8,29.46,SW,225,1.2,0.0,96,0.00,CLR,SCT,0.00,WeatherDisplay:10.37,2013-08-23 12:38:00,
2013-08-23 08:43:00,68.2,67.0,29.46,South,180,1.2,0.0,96,0.00,CLR,SCT,0.00,WeatherDisplay:10.37,2013-08-23 12:43:00,
2013-08-23 08:48:00,68.7,67.5,29.46,South,180,1.2,0.0,96,0.00,CLR,SCT,0.00,WeatherDisplay:10.37,2013-08-23 12:48:00,
2013-08-23 08:53:00,68.9,67.4,29.46,SE,135,1.2,0.0,95,0.00,CLR,SCT,0.00,WeatherDisplay:10.37,2013-08-23 12:53:00,
2013-08-23 08:58:00,69.4,67.9,29.46,SE,135,1.2,0.0,95,0.00,CLR,SCT,0.00,WeatherDisplay:10.37,2013-08-23 12:58:00,
2013-08-23 09:03:00,70.0,68.2,29.46,SW,225,1.2,0.0,94,0.00,CLR,SCT,0.00,WeatherDisplay:10.37,2013-08-23 13:03:00,
2013-08-23 09:08:00,70.3,68.5,29.46,SE,135,1.2,0.0,94,0.00,CLR,SCT,0.00,WeatherDisplay:10.37,2013-08-23 13:08:00,
2013-08-23 09:13:00,71.1,68.9,29.46,SW,225,1.2,0.0,93,0.00,CLR,SCT,0.00,WeatherDisplay:10.37,2013-08-23 13:13:00,
2013-08-23 09:18:00,71.4,69.3,29.46,NE,45,1.2,0.0,93,0.00,CLR,SCT,0.00,WeatherDisplay:10.37,2013-08-23 13:18:00,
2013-08-23 09:23:00,72.0,69.2,29.46,SE,135,1.2,0.0,91,0.00,CLR,SCT,0.00,WeatherDisplay:10.37,2013-08-23 13:23:00,
2013-08-23 09:28:00,73.9,70.8,29.46,NE,45,0.0,0.0,90,0.00,CLR,SCT,0.00,WeatherDisplay:10.37,2013-08-23 13:28:00,
2013-08-23 09:33:00,76.3,72.5,29.46,SW,225,0.0,0.0,88,0.00,CLR,SCT,0.00,WeatherDisplay:10.37,2013-08-23 13:33:00,
2013-08-23 09:38:00,78.6,72.7,29.46,West,270,0.0,0.0,82,0.00,CLR,SCT,0.00,WeatherDisplay:10.37,2013-08-23 13:38:00,
2013-08-23 09:43:00,80.1,72.2,29.46,SW,225,0.0,0.0,77,0.00,CLR,SCT,0.00,WeatherDisplay:10.37,2013-08-23 13:43:00,
2013-08-23 09:48:00,81.0,71.1,29.46,SW,225,0.0,0.0,72,0.00,CLR,SCT,0.00,WeatherDisplay:10.37,2013-08-23 13:48:00,
2013-08-23 09:53:00,81.5,70.3,29.46,North,0,0.0,0.0,69,0.00,CLR,SCT,0.00,WeatherDisplay:10.37,2013-08-23 13:53:00,
2013-08-23 09:58:00,81.9,71.5,29.46,West,270,0.0,0.0,71,0.00,CLR,SCT,0.00,WeatherDisplay:10.37,2013-08-23 13:58:00,
2013-08-23 10:03:00,82.4,70.8,29.46,North,0,0.0,0.0,68,0.00,CLR,SCT,0.00,WeatherDisplay:10.37,2013-08-23 14:03:00,
2013-08-23 10:08:00,83.1,71.5,29.47,NE,45,0.0,0.0,68,0.00,CLR,SCT,0.00,WeatherDisplay:10.37,2013-08-23 14:08:00,
2013-08-23 10:13:00,83.7,71.1,29.47,South,180,0.0,0.0,66,0.00,CLR,SCT,0.00,WeatherDisplay:10.37,2013-08-23 14:13:00,
2013-08-23 10:18:00,84.0,71.4,29.47,South,180,0.0,0.0,66,0.00,CLR,SCT,0.00,WeatherDisplay:10.37,2013-08-23 14:18:00,
2013-08-23 10:23:00,83.3,70.8,29.47,SW,225,0.0,0.0,66,0.00,CLR,SCT,0.00,WeatherDisplay:10.37,2013-08-23 14:23:00,
2013-08-23 10:28:00,83.8,71.3,29.47,West,270,0.0,0.0,66,0.00,CLR,SCT,0.00,WeatherDisplay:10.37,2013-08-23 14:28:00,
2013-08-23 10:33:00,84.7,71.2,29.47,West,270,0.0,0.0,64,0.00,CLR,SCT,0.00,WeatherDisplay:10.37,2013-08-23 14:33:00,
2013-08-23 10:38:00,85.3,71.3,29.47,NW,315,0.0,0.0,63,0.00,CLR,SCT,0.00,WeatherDisplay:10.37,2013-08-23 14:38:00,
2013-08-23 10:44:00,84.4,69.0,29.47,SW,225,0.0,0.0,60,0.00,CLR,SCT,0.00,WeatherDisplay:10.37,2013-08-23 14:44:00,
2013-08-23 10:49:00,84.6,70.6,29.47,NW,315,0.0,0.0,63,0.00,CLR,SCT,0.00,WeatherDisplay:10.37,2013-08-23 14:49:00,
2013-08-23 10:54:00,85.5,71.9,29.47,SE,135,0.0,0.0,64,0.00,CLR,SCT,0.00,WeatherDisplay:10.37,2013-08-23 14:54:00,
2013-08-23 10:59:00,86.7,72.6,29.47,SE,135,0.0,0.0,63,0.00,CLR,SCT,0.00,WeatherDisplay:10.37,2013-08-23 14:59:00,
2013-08-23 11:04:00,87.8,73.2,29.47,SW,225,0.0,0.0,62,0.00,CLR,SCT,0.00,WeatherDisplay:10.37,2013-08-23 15:04:00,
2013-08-23 11:09:00,88.0,69.8,29.47,SW,225,0.0,0.0,55,0.00,CLR,SCT,0.00,WeatherDisplay:10.37,2013-08-23 15:09:00,
2013-08-23 11:14:00,88.3,71.2,29.47,NW,315,0.0,0.0,57,0.00,CLR,SCT,0.00,WeatherDisplay:10.37,2013-08-23 15:14:00,
2013-08-23 11:19:00,88.2,69.4,29.47,SE,135,0.0,0.0,54,0.00,CLR,SCT,0.00,WeatherDisplay:10.37,2013-08-23 15:19:00,
2013-08-23 11:24:00,88.9,71.7,29.47,SE,135,0.0,0.0,57,0.00,CLR,SCT,0.00,WeatherDisplay:10.37,2013-08-23 15:24:00,
2013-08-23 11:29:00,89.6,71.8,29.47,North,0,0.0,0.0,56,0.00,CLR,SCT,0.00,WeatherDisplay:10.37,2013-08-23 15:29:00,
2013-08-23 11:34:00,89.6,69.6,29.47,SE,135,0.0,0.0,52,0.00,CLR,SCT,0.00,WeatherDisplay:10.37,2013-08-23 15:34:00,
2013-08-23 11:39:00,89.6,70.2,29.47,East,90,0.0,0.0,53,0.00,CLR,SCT,0.00,WeatherDisplay:10.37,2013-08-23 15:39:00,
2013-08-23 11:44:00,89.2,68.2,29.47,South,180,0.0,0.0,50,0.00,CLR,SCT,0.00,WeatherDisplay:10.37,2013-08-23 15:44:00,
2013-08-23 11:49:00,88.7,67.1,29.47,East,90,0.0,0.0,49,0.00,CLR,SCT,0.00,WeatherDisplay:10.37,2013-08-23 15:49:00,
2013-08-23 11:54:00,88.3,67.9,29.47,East,90,0.0,0.0,51,0.00,CLR,SCT,0.00,WeatherDisplay:10.37,2013-08-23 15:54:00,
2013-08-23 11:59:00,89.2,69.3,29.47,South,180,0.0,0.0,52,0.00,CLR,SCT,0.00,WeatherDisplay:10.37,2013-08-23 15:59:00,
2013-08-23 12:04:00,89.6,67.9,29.46,SE,135,0.0,0.0,49,0.00,CLR,SCT,0.00,WeatherDisplay:10.37,2013-08-23 16:04:00,
2013-08-23 12:09:00,90.1,68.4,29.47,SE,135,0.0,0.0,49,0.00,CLR,SCT,0.00,WeatherDisplay:10.37,2013-08-23 16:09:00,
2013-08-23 12:14:00,90.0,68.8,29.46,NW,315,0.0,0.0,50,0.00,CLR,SCT,0.00,WeatherDisplay:10.37,2013-08-23 16:14:00,
2013-08-23 12:19:00,89.8,68.1,29.45,West,270,0.0,0.0,49,0.00,CLR,SCT,0.00,WeatherDisplay:10.37,2013-08-23 16:19:00,
2013-08-23 12:24:00,90.1,69.0,29.45,SE,135,0.0,0.0,50,0.00,CLR,SCT,0.00,WeatherDisplay:10.37,2013-08-23 16:24:00,
2013-08-23 12:29:00,89.4,69.5,29.45,SE,135,0.0,0.0,52,0.00,CLR,SCT,0.00,WeatherDisplay:10.37,2013-08-23 16:29:00,
2013-08-23 12:34:00,88.7,67.7,29.45,North,0,0.0,0.0,50,0.00,CLR,SCT,0.00,WeatherDisplay:10.37,2013-08-23 16:34:00,
2013-08-23 12:39:00,88.0,68.7,29.45,North,0,0.0,0.0,53,0.00,CLR,SCT,0.00,WeatherDisplay:10.37,2013-08-23 16:39:00,
2013-08-23 12:44:00,88.2,68.9,29.44,SE,135,0.0,0.0,53,0.00,CLR,SCT,0.00,WeatherDisplay:10.37,2013-08-23 16:44:00,
2013-08-23 12:49:00,89.1,69.1,29.44,SW,225,0.0,0.0,52,0.00,CLR,SCT,0.00,WeatherDisplay:10.37,2013-08-23 16:49:00,
2013-08-23 12:54:00,90.0,68.8,29.44,North,0,0.0,0.0,50,0.00,CLR,SCT,0.00,WeatherDisplay:10.37,2013-08-23 16:54:00,
2013-08-23 12:59:00,88.3,69.0,29.44,North,0,0.0,0.0,53,0.00,CLR,SCT,0.00,WeatherDisplay:10.37,2013-08-23 16:59:00,
2013-08-23 13:04:00,86.2,68.6,29.46,North,0,0.0,0.0,56,0.00,CLR,SCT,0.00,WeatherDisplay:10.37,2013-08-23 17:04:00,
2013-08-23 13:09:00,82.4,69.4,29.46,NE,45,0.0,0.0,65,0.01,RA,SCT,0.01,WeatherDisplay:10.37,2013-08-23 17:09:00,
2013-08-23 13:14:00,79.5,69.7,29.47,NW,315,1.2,0.0,72,0.01,RA,SCT,0.01,WeatherDisplay:10.37,2013-08-23 17:14:00,
2013-08-23 13:19:00,77.4,68.4,29.47,South,180,0.0,0.0,74,0.05,RA,SCT,0.06,WeatherDisplay:10.37,2013-08-23 17:19:00,
2013-08-23 13:24:00,75.6,68.2,29.47,West,270,1.2,0.0,78,0.06,RA,SCT,0.06,WeatherDisplay:10.37,2013-08-23 17:24:00,
2013-08-23 13:29:00,73.9,68.4,29.46,SE,135,1.2,0.0,83,0.06,RA,SCT,0.06,WeatherDisplay:10.37,2013-08-23 17:29:00,
2013-08-23 13:34:00,73.2,67.7,29.46,SE,135,0.0,0.0,83,0.06,CLR,SCT,0.06,WeatherDisplay:10.37,2013-08-23 17:34:00,
2013-08-23 13:39:00,72.7,67.6,29.44,NE,45,1.2,0.0,84,0.06,CLR,SCT,0.06,WeatherDisplay:10.37,2013-08-23 17:39:00,
2013-08-23 13:44:00,72.9,67.7,29.44,NE,45,0.0,0.0,84,0.06,CLR,SCT,0.06,WeatherDisplay:10.37,2013-08-23 17:44:00,
2013-08-23 13:49:00,73.8,69.3,29.44,NE,45,0.0,0.0,86,0.06,CLR,SCT,0.06,WeatherDisplay:10.37,2013-08-23 17:49:00,
2013-08-23 13:54:00,75.2,70.0,29.44,SE,135,1.2,0.0,84,0.06,CLR,SCT,0.06,WeatherDisplay:10.37,2013-08-23 17:54:00,
2013-08-23 13:59:00,76.6,70.7,29.44,SE,135,1.2,0.0,82,0.06,CLR,SCT,0.06,WeatherDisplay:10.37,2013-08-23 17:59:00,
2013-08-23 14:04:00,77.2,69.4,29.44,South,180,0.0,0.0,77,0.06,CLR,SCT,0.06,WeatherDisplay:10.37,2013-08-23 18:04:00,
2013-08-23 14:09:00,78.6,71.6,29.44,South,180,0.0,0.0,79,0.05,CLR,SCT,0.06,WeatherDisplay:10.37,2013-08-23 18:09:00,
2013-08-23 14:14:00,79.5,70.5,29.44,SE,135,0.0,0.0,74,0.05,CLR,SCT,0.06,WeatherDisplay:10.37,2013-08-23 18:14:00,
2013-08-23 14:19:00,80.2,70.8,29.44,South,180,0.0,0.0,73,0.01,CLR,SCT,0.06,WeatherDisplay:10.37,2013-08-23 18:19:00,
2013-08-23 14:24:00,81.1,71.3,29.44,North,0,1.2,0.0,72,0.00,CLR,SCT,0.06,WeatherDisplay:10.37,2013-08-23 18:24:00,
2013-08-23 14:29:00,82.4,70.8,29.44,NW,315,0.0,0.0,68,0.00,CLR,SCT,0.06,WeatherDisplay:10.37,2013-08-23 18:29:00,
2013-08-23 14:34:00,82.4,70.8,29.44,NW,315,0.0,0.0,68,0.00,CLR,SCT,0.06,WeatherDisplay:10.37,2013-08-23 18:34:00,
2013-08-23 14:39:00,82.9,72.1,29.43,South,180,0.0,0.0,70,0.00,CLR,SCT,0.06,WeatherDisplay:10.37,2013-08-23 18:39:00,
2013-08-23 14:44:00,81.9,71.5,29.43,SE,135,0.0,0.0,71,0.00,CLR,SCT,0.06,WeatherDisplay:10.37,2013-08-23 18:44:00,
2013-08-23 14:49:00,82.0,71.7,29.43,SE,135,1.2,0.0,71,0.00,CLR,SCT,0.06,WeatherDisplay:10.37,2013-08-23 18:49:00,
2013-08-23 14:54:00,82.2,71.5,29.43,North,0,0.0,0.0,70,0.00,CLR,SCT,0.06,WeatherDisplay:10.37,2013-08-23 18:54:00,
2013-08-23 14:59:00,82.9,71.3,29.42,SE,135,0.0,0.0,68,0.00,CLR,SCT,0.06,WeatherDisplay:10.37,2013-08-23 18:59:00,
2013-08-23 15:04:00,84.2,71.6,29.42,South,180,0.0,0.0,66,0.00,CLR,SCT,0.06,WeatherDisplay:10.37,2013-08-23 19:04:00,
2013-08-23 15:09:00,83.7,72.0,29.41,NE,45,0.0,0.0,68,0.00,CLR,SCT,0.06,WeatherDisplay:10.37,2013-08-23 19:09:00,
2013-08-23 15:14:00,82.2,70.6,29.42,NE,45,0.0,0.0,68,0.00,CLR,SCT,0.06,WeatherDisplay:10.37,2013-08-23 19:14:00,
2013-08-23 15:19:00,81.1,70.8,29.42,South,180,0.0,0.0,71,0.00,CLR,SCT,0.06,WeatherDisplay:10.37,2013-08-23 19:19:00,
2013-08-23 15:24:00,80.4,71.0,29.42,SE,135,1.2,0.0,73,0.00,CLR,SCT,0.06,WeatherDisplay:10.37,2013-08-23 19:24:00,
2013-08-23 15:29:00,80.1,70.6,29.41,South,180,0.0,0.0,73,0.00,CLR,SCT,0.06,WeatherDisplay:10.37,2013-08-23 19:29:00,
2013-08-23 15:34:00,81.0,71.5,29.41,SE,135,0.0,0.0,73,0.00,CLR,SCT,0.06,WeatherDisplay:10.37,2013-08-23 19:34:00,
2013-08-23 15:39:00,82.4,71.6,29.41,West,270,1.2,0.0,70,0.00,CLR,SCT,0.06,WeatherDisplay:10.37,2013-08-23 19:39:00,
2013-08-23 15:44:00,83.1,71.9,29.41,SE,135,1.2,0.0,69,0.00,CLR,SCT,0.06,WeatherDisplay:10.37,2013-08-23 19:44:00,
2013-08-23 15:49:00,83.3,71.6,29.41,South,180,0.0,0.0,68,0.00,CLR,SCT,0.06,WeatherDisplay:10.37,2013-08-23 19:49:00,
2013-08-23 15:54:00,82.6,70.9,29.41,South,180,0.0,0.0,68,0.00,CLR,SCT,0.06,WeatherDisplay:10.37,2013-08-23 19:54:00,
2013-08-23 15:59:00,82.0,70.4,29.40,SE,135,0.0,0.0,68,0.00,CLR,SCT,0.06,WeatherDisplay:10.37,2013-08-23 19:59:00,
2013-08-23 16:04:00,82.0,70.0,29.40,SE,135,1.2,0.0,67,0.00,CLR,SCT,0.06,WeatherDisplay:10.37,2013-08-23 20:04:00,
2013-08-23 16:09:00,82.9,70.9,29.40,SE,135,0.0,0.0,67,0.00,CLR,SCT,0.06,WeatherDisplay:10.37,2013-08-23 20:09:00,
2013-08-23 16:14:00,82.8,70.2,29.40,East,90,0.0,0.0,66,0.00,CLR,SCT,0.06,WeatherDisplay:10.37,2013-08-23 20:14:00,
2013-08-23 16:20:00,82.6,70.9,29.40,SE,135,0.0,0.0,68,0.00,CLR,SCT,0.06,WeatherDisplay:10.37,2013-08-23 20:20:00,
2013-08-23 16:25:00,82.2,71.9,29.40,SE,135,0.0,0.0,71,0.00,CLR,SCT,0.06,WeatherDisplay:10.37,2013-08-23 20:25:00,
2013-08-23 16:30:00,82.0,71.3,29.40,South,180,0.0,0.0,70,0.00,CLR,SCT,0.06,WeatherDisplay:10.37,2013-08-23 20:30:00,
2013-08-23 16:35:00,82.0,71.3,29.40,South,180,0.0,0.0,70,0.00,CLR,SCT,0.06,WeatherDisplay:10.37,2013-08-23 20:35:00,
2013-08-23 16:40:00,81.5,71.2,29.40,SE,135,0.0,0.0,71,0.00,CLR,SCT,0.06,WeatherDisplay:10.37,2013-08-23 20:40:00,
2013-08-23 16:45:00,81.9,70.7,29.40,SE,135,0.0,0.0,69,0.00,CLR,SCT,0.06,WeatherDisplay:10.37,2013-08-23 20:45:00,
2013-08-23 16:50:00,81.9,71.5,29.40,North,0,0.0,0.0,71,0.00,CLR,SCT,0.06,WeatherDisplay:10.37,2013-08-23 20:50:00,
2013-08-23 16:55:00,82.4,71.6,29.40,North,0,1.2,0.0,70,0.00,CLR,SCT,0.06,WeatherDisplay:10.37,2013-08-23 20:55:00,
2013-08-23 17:00:00,83.1,71.9,29.40,South,180,0.0,0.0,69,0.00,CLR,SCT,0.06,WeatherDisplay:10.37,2013-08-23 21:00:00,
2013-08-23 17:05:00,82.9,70.9,29.40,South,180,0.0,0.0,67,0.00,CLR,SCT,0.06,WeatherDisplay:10.37,2013-08-23 21:05:00,
2013-08-23 17:10:00,82.9,71.3,29.40,SE,135,0.7,0.0,68,0.00,CLR,SCT,0.06,WeatherDisplay:10.37,2013-08-23 21:10:00,
2013-08-23 17:15:00,82.9,71.3,29.40,East,90,0.0,0.0,68,0.00,CLR,SCT,0.06,WeatherDisplay:10.37,2013-08-23 21:15:00,
2013-08-23 17:20:00,83.1,71.5,29.40,South,180,0.0,0.0,68,0.00,CLR,SCT,0.06,WeatherDisplay:10.37,2013-08-23 21:20:00,
2013-08-23 17:25:00,82.9,71.3,29.40,SE,135,0.0,0.0,68,0.00,CLR,SCT,0.06,WeatherDisplay:10.37,2013-08-23 21:25:00,
2013-08-23 17:30:00,82.6,71.4,29.40,SE,135,0.0,0.0,69,0.00,CLR,SCT,0.06,WeatherDisplay:10.37,2013-08-23 21:30:00,
2013-08-23 17:35:00,82.2,71.5,29.40,East,90,0.0,0.0,70,0.00,CLR,SCT,0.06,WeatherDisplay:10.37,2013-08-23 21:35:00,
2013-08-23 17:40:00,81.9,71.5,29.40,West,270,0.0,0.0,71,0.00,CLR,SCT,0.06,WeatherDisplay:10.37,2013-08-23 21:40:00,
2013-08-23 17:45:00,81.7,71.8,29.40,NE,45,0.7,0.0,72,0.00,CLR,SCT,0.06,WeatherDisplay:10.37,2013-08-23 21:45:00,
2013-08-23 17:50:00,81.5,71.6,29.41,SE,135,0.0,0.0,72,0.00,CLR,SCT,0.06,WeatherDisplay:10.37,2013-08-23 21:50:00,
2013-08-23 17:55:00,81.1,71.7,29.40,SE,135,0.0,0.0,73,0.00,CLR,SCT,0.06,WeatherDisplay:10.37,2013-08-23 21:55:00,
2013-08-23 18:00:00,81.0,71.9,29.41,South,180,0.0,0.0,74,0.00,CLR,SCT,0.06,WeatherDisplay:10.37,2013-08-23 22:00:00,
2013-08-23 18:05:00,80.8,72.1,29.40,SW,225,0.0,0.0,75,0.00,CLR,SCT,0.06,WeatherDisplay:10.37,2013-08-23 22:05:00,
2013-08-23 18:10:00,80.6,71.5,29.40,South,180,1.2,0.0,74,0.00,CLR,SCT,0.06,WeatherDisplay:10.37,2013-08-23 22:10:00,
2013-08-23 18:15:00,80.6,71.9,29.41,SW,225,1.2,0.0,75,0.00,CLR,SCT,0.06,WeatherDisplay:10.37,2013-08-23 22:15:00,
2013-08-23 18:20:00,80.4,72.5,29.40,NW,315,0.0,0.0,77,0.00,CLR,SCT,0.06,WeatherDisplay:10.37,2013-08-23 22:20:00,
2013-08-23 18:25:00,80.4,72.9,29.40,NW,315,0.0,0.0,78,0.00,CLR,SCT,0.06,WeatherDisplay:10.37,2013-08-23 22:25:00,
2013-08-23 18:30:00,80.2,72.8,29.41,WNW,292,0.0,0.0,78,0.00,CLR,SCT,0.06,WeatherDisplay:10.37,2013-08-23 22:30:00,
2013-08-23 18:35:00,79.9,72.0,29.41,South,180,0.0,0.0,77,0.00,CLR,SCT,0.06,WeatherDisplay:10.37,2013-08-23 22:35:00,
2013-08-23 18:40:00,79.3,71.9,29.41,North,0,1.2,0.0,78,0.00,CLR,SCT,0.06,WeatherDisplay:10.37,2013-08-23 22:40:00,
2013-08-23 18:45:00,79.2,71.7,29.41,West,270,0.0,0.0,78,0.00,CLR,SCT,0.06,WeatherDisplay:10.37,2013-08-23 22:45:00,
2013-08-23 18:50:00,79.2,72.1,29.41,SW,225,0.0,0.0,79,0.00,CLR,SCT,0.06,WeatherDisplay:10.37,2013-08-23 22:50:00,
2013-08-23 18:55:00,79.0,71.9,29.41,South,180,0.0,0.0,79,0.00,CLR,SCT,0.06,WeatherDisplay:10.37,2013-08-23 22:55:00,
2013-08-23 19:00:00,78.6,71.9,29.41,North,0,1.2,0.0,80,0.00,CLR,SCT,0.06,WeatherDisplay:10.37,2013-08-23 23:00:00,
2013-08-23 19:06:00,78.6,72.3,29.40,SE,135,0.0,0.0,81,0.00,CLR,SCT,0.06,WeatherDisplay:10.37,2013-08-23 23:06:00,
2013-08-23 19:11:00,78.3,72.3,29.41,South,180,1.2,0.0,82,0.00,CLR,SCT,0.06,WeatherDisplay:10.37,2013-08-23 23:11:00,
2013-08-23 19:16:00,78.1,72.1,29.41,South,180,0.0,0.0,82,0.00,CLR,SCT,0.06,WeatherDisplay:10.37,2013-08-23 23:16:00,
2013-08-23 19:21:00,78.1,72.5,29.41,South,180,1.2,0.0,83,0.00,CLR,SCT,0.06,WeatherDisplay:10.37,2013-08-23 23:21:00,
2013-08-23 19:26:00,77.7,72.1,29.41,SE,135,1.2,0.0,83,0.00,CLR,SCT,0.06,WeatherDisplay:10.37,2013-08-23 23:26:00,
2013-08-23 19:31:00,77.5,72.3,29.41,SE,135,1.2,0.0,84,0.01,RA,SCT,0.07,WeatherDisplay:10.37,2013-08-23 23:31:00,
2013-08-23 19:36:00,77.4,72.1,29.42,SE,135,0.0,0.0,84,0.01,RA,SCT,0.07,WeatherDisplay:10.37,2013-08-23 23:36:00,
2013-08-23 19:41:00,77.2,72.0,29.42,South,180,1.2,0.0,84,0.01,CLR,SCT,0.07,WeatherDisplay:10.37,2013-08-23 23:41:00,
2013-08-23 19:46:00,77.0,72.1,29.42,South,180,0.0,0.0,85,0.01,CLR,SCT,0.07,WeatherDisplay:10.37,2013-08-23 23:46:00,
2013-08-23 19:51:00,76.8,72.3,29.42,South,180,0.0,0.0,86,0.01,CLR,SCT,0.07,WeatherDisplay:10.37,2013-08-23 23:51:00,
2013-08-23 19:56:00,76.6,72.1,29.42,South,180,1.2,0.0,86,0.01,CLR,SCT,0.07,WeatherDisplay:10.37,2013-08-23 23:56:00,
2013-08-23 20:01:00,76.5,72.3,29.42,South,180,1.2,0.0,87,0.01,CLR,SCT,0.07,WeatherDisplay:10.37,2013-08-24 00:01:00,
2013-08-23 20:06:00,76.1,71.9,29.43,SW,225,0.0,0.0,87,0.01,CLR,SCT,0.07,WeatherDisplay:10.37,2013-08-24 00:06:00,
2013-08-23 20:11:00,75.7,71.9,29.43,South,180,1.2,0.0,88,0.01,CLR,SCT,0.07,WeatherDisplay:10.37,2013-08-24 00:11:00,
2013-08-23 20:16:00,75.7,71.9,29.43,SW,225,0.0,0.0,88,0.01,CLR,SCT,0.07,WeatherDisplay:10.37,2013-08-24 00:16:00,
2013-08-23 20:21:00,75.6,71.8,29.43,South,180,0.0,0.0,88,0.01,CLR,SCT,0.07,WeatherDisplay:10.37,2013-08-24 00:21:00,
2013-08-23 20:26:00,75.4,71.6,29.44,SE,135,0.0,0.0,88,0.01,CLR,SCT,0.07,WeatherDisplay:10.37,2013-08-24 00:26:00,
2013-08-23 20:31:00,75.0,71.9,29.44,SE,135,0.0,0.0,90,0.00,CLR,SCT,0.07,WeatherDisplay:10.37,2013-08-24 00:31:00,
2013-08-23 20:36:00,74.8,71.7,29.44,SE,135,0.0,0.0,90,0.00,CLR,SCT,0.07,WeatherDisplay:10.37,2013-08-24 00:36:00,
2013-08-23 20:41:00,74.7,71.5,29.44,SW,225,1.2,0.0,90,0.00,CLR,SCT,0.07,WeatherDisplay:10.37,2013-08-24 00:41:00,
2013-08-23 20:46:00,74.5,71.4,29.44,NW,315,1.2,0.0,90,0.00,CLR,SCT,0.07,WeatherDisplay:10.37,2013-08-24 00:46:00,
2013-08-23 20:51:00,74.5,71.7,29.44,South,180,1.2,0.0,91,0.00,CLR,SCT,0.07,WeatherDisplay:10.37,2013-08-24 00:51:00,
2013-08-23 20:56:00,74.3,71.5,29.44,South,180,0.0,0.0,91,0.00,CLR,SCT,0.07,WeatherDisplay:10.37,2013-08-24 00:56:00,
2013-08-23 21:01:00,74.1,71.3,29.44,South,180,1.2,0.0,91,0.00,CLR,SCT,0.07,WeatherDisplay:10.37,2013-08-24 01:01:00,
2013-08-23 21:06:00,73.9,71.5,29.44,South,180,0.0,0.0,92,0.00,CLR,SCT,0.07,WeatherDisplay:10.37,2013-08-24 01:06:00,
2013-08-23 21:11:00,73.6,71.1,29.45,South,180,0.0,0.0,92,0.00,CLR,SCT,0.07,WeatherDisplay:10.37,2013-08-24 01:11:00,
2013-08-23 21:16:00,73.4,70.9,29.45,South,180,1.2,0.0,92,0.00,CLR,SCT,0.07,WeatherDisplay:10.37,2013-08-24 01:16:00,
2013-08-23 21:21:00,73.4,70.9,29.45,South,180,1.6,0.0,92,0.00,CLR,SCT,0.07,WeatherDisplay:10.37,2013-08-24 01:21:00,
2013-08-23 21:26:00,73.2,70.8,29.45,South,180,0.0,0.0,92,0.00,CLR,SCT,0.07,WeatherDisplay:10.37,2013-08-24 01:26:00,
2013-08-23 21:31:00,73.0,70.6,29.45,SE,135,0.0,0.0,92,0.00,CLR,SCT,0.07,WeatherDisplay:10.37,2013-08-24 01:31:00,
2013-08-23 21:36:00,72.9,70.4,29.46,SE,135,0.0,0.0,92,0.00,CLR,SCT,0.07,WeatherDisplay:10.37,2013-08-24 01:36:00,
2013-08-23 21:41:00,72.7,70.2,29.46,SE,135,0.0,0.0,92,0.00,CLR,SCT,0.07,WeatherDisplay:10.37,2013-08-24 01:41:00,
2013-08-23 21:46:00,72.5,70.0,29.47,South,180,0.0,0.0,92,0.00,CLR,SCT,0.07,WeatherDisplay:10.37,2013-08-24 01:46:00,
2013-08-23 21:51:00,72.5,70.0,29.46,SW,225,1.2,0.0,92,0.00,CLR,SCT,0.07,WeatherDisplay:10.37,2013-08-24 01:51:00,
2013-08-23 21:56:00,72.3,70.2,29.47,SW,225,0.0,0.0,93,0.00,CLR,SCT,0.07,WeatherDisplay:10.37,2013-08-24 01:56:00,
2013-08-23 22:01:00,72.1,70.0,29.47,South,180,1.2,0.0,93,0.00,CLR,SCT,0.07,WeatherDisplay:10.37,2013-08-24 02:01:00,
2013-08-23 22:06:00,72.1,70.0,29.47,South,180,1.2,0.0,93,0.00,CLR,SCT,0.07,WeatherDisplay:10.37,2013-08-24 02:06:00,
2013-08-23 22:11:00,72.0,69.8,29.47,North,0,0.0,0.0,93,0.00,CLR,SCT,0.07,WeatherDisplay:10.37,2013-08-24 02:11:00,
2013-08-23 22:16:00,72.0,69.8,29.47,North,0,1.2,0.0,93,0.00,CLR,SCT,0.07,WeatherDisplay:10.37,2013-08-24 02:16:00,
2013-08-23 22:21:00,72.0,69.8,29.47,SE,135,1.2,0.0,93,0.00,CLR,SCT,0.07,WeatherDisplay:10.37,2013-08-24 02:21:00,
2013-08-23 22:26:00,72.0,69.8,29.47,North,0,0.0,0.0,93,0.00,CLR,SCT,0.07,WeatherDisplay:10.37,2013-08-24 02:26:00,
2013-08-23 22:31:00,72.0,69.8,29.47,NE,45,0.0,0.0,93,0.00,CLR,SCT,0.07,WeatherDisplay:10.37,2013-08-24 02:31:00,
2013-08-23 22:36:00,72.1,70.0,29.47,South,180,0.0,0.0,93,0.00,CLR,SCT,0.07,WeatherDisplay:10.37,2013-08-24 02:36:00,
2013-08-23 22:41:00,72.0,69.8,29.47,South,180,1.2,0.0,93,0.00,CLR,SCT,0.07,WeatherDisplay:10.37,2013-08-24 02:41:00,
2013-08-23 22:46:00,71.6,69.5,29.47,SE,135,2.3,0.0,93,0.00,CLR,SCT,0.07,WeatherDisplay:10.37,2013-08-24 02:46:00,
2013-08-23 22:51:00,71.4,69.6,29.48,SE,135,0.0,0.0,94,0.00,CLR,SCT,0.07,WeatherDisplay:10.37,2013-08-24 02:51:00,
2013-08-23 22:56:00,71.6,69.5,29.48,SE,135,1.2,0.0,93,0.00,CLR,SCT,0.07,WeatherDisplay:10.37,2013-08-24 02:56:00,
2013-08-23 23:01:00,71.8,70.0,29.48,NE,45,1.2,0.0,94,0.00,CLR,SCT,0.07,WeatherDisplay:10.37,2013-08-24 03:01:00,
2013-08-23 23:06:00,72.0,70.1,29.48,East,90,1.2,0.0,94,0.00,CLR,SCT,0.07,WeatherDisplay:10.37,2013-08-24 03:06:00,
2013-08-23 23:11:00,72.1,70.3,29.49,SE,135,1.2,0.0,94,0.00,CLR,SCT,0.07,WeatherDisplay:10.37,2013-08-24 03:11:00,
2013-08-23 23:16:00,72.0,69.8,29.49,SE,135,1.2,0.0,93,0.00,CLR,SCT,0.07,WeatherDisplay:10.37,2013-08-24 03:16:00,
2013-08-23 23:21:00,72.0,69.8,29.49,SE,135,1.2,0.0,93,0.00,CLR,SCT,0.07,WeatherDisplay:10.37,2013-08-24 03:21:00,
2013-08-23 23:26:00,71.8,69.3,29.49,ESE,112,0.0,0.0,92,0.00,CLR,SCT,0.07,WeatherDisplay:10.37,2013-08-24 03:26:00,
2013-08-23 23:31:00,71.8,69.0,29.50,SE,135,1.2,0.0,91,0.00,CLR,SCT,0.07,WeatherDisplay:10.37,2013-08-24 03:31:00,
2013-08-23 23:36:00,71.8,69.0,29.50,NE,45,1.2,0.0,91,0.00,CLR,SCT,0.07,WeatherDisplay:10.37,2013-08-24 03:36:00,
2013-08-23 23:41:00,72.0,69.2,29.50,SE,135,0.0,0.0,91,0.00,CLR,SCT,0.07,WeatherDisplay:10.37,2013-08-24 03:41:00,
2013-08-23 23:46:00,71.8,69.0,29.50,SE,135,1.2,0.0,91,0.00,CLR,SCT,0.07,WeatherDisplay:10.37,2013-08-24 03:46:00,
2013-08-23 23:52:00,71.8,68.7,29.51,SE,135,0.0,0.0,90,0.00,CLR,SCT,0.07,WeatherDisplay:10.37,2013-08-24 03:52:00,
2013-08-23 23:57:00,71.6,68.2,29.51,North,0,1.2,0.0,89,0.00,CLR,SCT,0.07,WeatherDisplay:10.37,2013-08-24 03:57:00,